Lapse_Rate
3.6 4.3 4.0 5.4 6.5 6.5 6.5 6.5 6.5 6.5 6.5 6.8 7.1 6.7 6.6 6.9 6.5 6.5 4.7 5.1 5.5 5.5 5.8 5.6 5.7 5.8 5.9 6.0 6.0 6.1 6.2 6.4 5.9 5.8 5.8 5.6 5.7 5.5 5.6 5.6 5.6 5.7 5.5 5.4 5.6 5.8 6.1 6.0 6.1
3.0 4.4 4.4 5.2 6.5 6.5 6.5 6.5 6.5 6.5 6.8 6.7 7.3 7.2 6.8 6.5 7.3 4.9 5.5 5.6 5.4 5.2 5.3 5.3 5.5 5.7 6.1 6.1 6.0 6.0 6.1 6.3 5.7 5.6 5.4 5.4 5.4 5.5 5.6 5.6 5.3 5.2 5.2 5.6 5.7 5.8 5.8 5.7 5.9
5.1 6.7 5.0 6.5 6.5 6.5 6.5 6.5 6.5 6.6 7.2 6.9 6.9 7.5 7.2 6.9 6.3 5.6 5.7 5.8 5.2 4.6 5.0 5.6 5.5 5.7 6.2 5.9 5.6 5.5 5.7 5.9 5.6 5.4 5.4 5.4 5.4 5.5 5.7 5.5 5.3 5.4 5.6 5.6 5.7 5.7 5.7 5.9 6.0
4.9 5.5 5.1 6.5 6.5 6.5 6.5 6.5 6.4 6.5 7.0 7.1 7.2 6.5 7.6 7.6 7.5 5.9 5.9 5.6 4.8 4.6 5.2 5.5 5.7 5.7 5.7 5.3 5.4 5.6 5.7 5.6 5.5 5.4 5.4 5.5 5.5 5.7 5.8 5.5 5.6 5.8 5.7 5.6 5.7 5.9 6.0 6.0 6.2
4.4 3.6 6.5 6.5 6.5 6.5 6.5 6.5 6.6 6.5 6.7 7.0 7.1 6.6 7.0 6.8 6.3 6.0 5.3 5.0 4.0 4.2 5.1 5.5 5.6 5.7 5.2 5.3 5.6 5.8 5.8 5.9 5.8 5.6 5.7 5.7 5.9 6.0 5.7 5.7 5.7 5.8 5.7 5.8 5.9 6.1 6.3 6.2 6.3
4.8 3.7 6.5 6.5 6.5 6.5 6.5 6.7 6.7 6.6 6.9 7.1 6.9 6.7 6.5 6.4 5.9 5.8 5.3 4.4 4.5 4.2 4.6 5.5 5.5 5.5 5.2 5.9 6.0 5.8 6.0 6.0 5.7 5.8 5.9 5.9 5.9 5.7 5.7 5.7 5.7 5.8 6.1 6.1 6.2 6.1 6.1 6.1 6.1
6.1 6.5 6.5 6.5 6.5 6.5 6.5 6.8 6.5 6.6 6.7 6.8 7.6 6.5 6.4 6.3 6.1 6.0 5.0 4.6 4.6 4.7 4.5 4.9 5.3 5.5 5.6 5.7 5.8 5.7 5.8 5.7 5.7 5.7 5.6 5.6 5.6 5.5 5.7 5.9 6.0 6.3 6.6 6.6 6.4 6.4 6.1 6.2 6.0
3.3 6.5 6.5 6.5 6.5 6.5 6.5 6.3 6.6 6.7 6.7 7.9 7.0 6.5 6.6 6.5 6.6 6.1 5.5 4.8 4.4 4.2 4.0 4.1 4.7 5.0 4.9 5.3 5.7 5.7 5.6 5.5 5.4 5.5 5.5 5.5 5.6 6.0 6.2 6.2 6.2 6.7 6.9 7.0 6.9 6.9 6.9 6.9 6.5
4.4 6.5 6.5 6.5 6.5 6.5 6.2 6.5 7.1 7.0 7.2 7.3 7.7 7.0 6.7 7.0 6.7 6.0 5.1 4.9 4.5 4.6 3.8 3.7 3.8 4.1 4.4 4.7 5.2 5.5 5.6 5.7 5.6 5.7 5.6 5.4 5.2 5.6 5.2 5.4 5.9 6.5 6.8 7.1 7.7 7.1 7.1 7.2 6.8
5.8 6.5 6.5 6.5 6.4 6.5 6.2 6.6 6.2 6.6 6.8 6.9 7.1 7.1 7.7 7.3 6.4 5.4 4.8 4.3 4.2 4.1 3.6 3.5 3.6 3.7 3.8 4.8 4.7 4.8 4.9 5.2 5.1 5.0 5.0 4.7 4.8 4.8 5.1 5.5 5.8 6.3 6.8 6.5 7.3 7.4 7.3 7.2 5.9
5.9 6.5 6.5 6.3 5.6 6.1 6.3 6.3 6.7 6.5 6.5 6.6 6.5 6.7 7.3 7.3 6.1 5.3 4.6 3.5 3.2 3.7 4.1 3.5 3.4 3.4 3.4 3.9 3.7 3.6 3.7 3.8 4.0 4.1 4.3 4.4 4.3 4.2 4.2 4.3 4.6 4.9 5.4 5.6 5.8 6.4 6.1 5.6 5.2
6.5 6.1 5.9 5.9 6.0 5.5 6.4 5.8 6.1 6.3 6.2 7.0 5.6 6.6 7.4 7.2 6.3 5.7 4.8 4.6 4.6 4.1 4.0 3.6 3.4 3.2 3.2 3.3 2.9 3.0 3.1 3.1 3.1 3.7 4.1 3.5 3.2 3.1 3.5 3.5 4.0 4.2 4.8 5.2 5.4 5.1 5.6 5.6 5.5
6.5 6.5 5.7 5.4 4.9 5.4 6.0 6.2 6.4 6.4 6.8 7.1 6.8 7.2 7.4 6.5 5.8 5.7 4.9 4.4 4.4 4.2 4.5 3.8 3.7 3.3 3.4 3.2 3.2 3.1 3.0 3.2 3.4 3.7 4.0 3.8 3.2 3.0 3.4 3.6 3.9 4.3 4.7 4.8 4.4 3.9 4.2 4.7 4.9
5.7 6.3 5.9 4.8 5.4 5.9 6.3 6.3 5.8 6.6 6.6 7.2 7.5 7.2 7.1 6.9 6.4 6.2 5.8 4.7 4.4 4.3 4.4 4.3 4.0 3.8 3.2 3.1 3.1 2.9 3.4 4.1 4.0 4.1 4.1 4.3 3.6 3.9 3.2 3.1 3.7 4.1 4.3 4.6 4.1 3.7 3.6 3.6 4.1
5.4 6.5 6.5 6.4 6.1 6.5 5.9 6.5 6.5 6.7 6.5 7.2 7.4 7.0 6.6 6.7 6.7 5.8 5.0 4.6 4.4 4.4 5.2 4.5 4.5 3.4 2.8 2.8 3.1 3.2 3.3 3.8 3.3 3.7 4.5 4.6 4.3 3.7 4.2 3.7 3.0 4.0 4.7 4.8 4.4 4.2 4.0 3.6 4.0
6.5 6.5 6.5 6.5 6.3 6.2 5.8 6.5 6.5 6.8 7.1 6.8 7.1 7.2 6.6 6.5 6.3 5.6 5.1 4.6 4.5 4.4 4.6 4.9 5.7 4.0 3.1 2.7 3.1 3.5 4.0 4.2 4.4 4.2 4.3 4.4 4.9 5.0 3.3 2.7 2.6 4.4 3.8 3.9 3.2 3.3 3.6 3.7 3.6
6.5 6.5 6.5 6.5 6.1 6.5 6.5 6.5 6.4 6.7 6.7 6.5 6.8 7.1 7.0 6.1 6.1 5.5 5.6 4.5 4.4 4.2 4.2 4.3 4.8 4.0 2.9 2.7 3.2 3.4 3.8 3.6 4.2 4.5 4.5 5.0 5.5 5.5 4.2 3.1 3.6 4.3 3.6 3.3 3.3 3.6 3.5 3.6 3.6
6.5 6.5 6.5 6.5 6.5 6.5 6.5 6.5 6.5 6.6 6.5 6.4 6.3 6.1 6.0 5.9 4.9 5.2 5.3 4.8 4.3 4.3 3.9 3.9 4.0 3.0 2.4 2.6 3.0 2.7 3.0 3.0 3.4 3.5 4.0 4.8 5.0 4.9 3.8 3.8 4.7 3.7 3.1 3.2 3.1 3.7 3.5 3.9 4.0
6.5 6.5 6.5 6.5 6.5 6.5 6.5 6.5 6.5 6.4 6.4 6.3 6.3 6.2 6.1 5.5 5.2 4.8 4.8 5.0 4.6 4.0 3.3 3.5 2.7 2.3 2.5 2.4 2.5 2.8 3.1 3.1 3.0 3.3 4.6 4.7 4.7 4.9 4.5 3.4 3.4 3.2 2.9 3.0 3.6 3.5 3.9 3.7 3.6
6.5 6.5 6.5 6.5 6.5 6.5 6.5 6.5 6.5 6.4 6.4 6.4 6.4 6.3 6.2 5.7 4.5 4.4 4.7 4.7 4.2 3.6 3.3 2.6 3.1 2.4 2.6 1.9 1.8 2.5 2.7 2.6 3.3 3.7 4.3 4.7 4.7 4.6 3.9 3.4 3.0 2.8 2.9 3.8 3.9 4.0 3.7 3.3 3.4
6.5 6.5 6.5 6.5 6.5 6.5 6.5 6.5 6.5 6.5 6.1 6.4 6.6 6.5 6.6 5.6 4.5 4.3 4.4 4.2 4.4 3.7 2.8 2.8 2.8 2.5 2.1 1.8 2.0 2.4 2.6 2.6 2.8 2.9 2.8 3.5 4.7 5.1 4.7 3.3 2.6 2.6 2.7 3.2 3.4 3.3 3.8 3.7 3.5
6.5 6.5 6.5 6.5 6.5 6.5 6.5 6.5 6.5 6.5 6.5 6.5 6.3 6.4 6.4 6.1 5.1 4.3 4.2 4.1 3.9 3.9 3.2 2.9 2.4 2.1 1.8 1.8 2.2 2.7 2.4 2.9 1.9 2.1 2.1 2.7 4.0 3.6 3.7 3.4 3.1 2.9 2.5 3.3 3.4 3.7 3.7 3.3 3.9
6.5 6.5 6.5 6.5 6.5 6.5 6.5 6.5 6.5 6.5 6.5 6.5 6.3 6.4 6.5 6.1 5.1 4.6 4.4 4.2 4.0 4.5 3.4 2.8 1.9 1.7 1.9 1.8 1.7 1.6 1.6 1.4 1.6 1.6 2.3 2.2 2.4 3.3 3.6 3.3 3.2 3.1 2.9 2.8 3.3 3.7 3.8 3.3 3.4
6.5 6.5 6.5 6.5 6.5 6.5 6.5 6.5 6.5 6.5 6.5 6.5 6.3 6.2 6.5 6.1 5.7 4.8 4.7 4.7 4.1 4.1 3.7 3.1 2.2 1.9 1.2 1.0 0.7 0.5 0.4 0.0 0.5 1.0 1.7 1.4 1.1 1.7 2.9 3.4 3.4 3.4 2.6 2.7 2.9 3.7 3.9 3.7 3.4
6.5 6.5 6.5 6.5 6.5 6.5 6.5 6.5 6.5 6.5 6.5 6.5 6.5 6.0 6.3 6.2 6.1 5.0 5.3 4.3 3.9 3.3 3.3 3.4 2.5 1.3 0.6 0.4 -0.3 -0.7 -0.8 -0.4 0.7 1.2 1.2 1.3 1.3 1.4 1.6 2.1 2.5 2.8 3.1 3.1 3.0 3.7 3.9 4.0 3.8
6.5 6.5 6.5 6.5 6.5 6.5 6.5 6.5 6.5 6.5 6.2 6.2 6.3 6.1 6.2 6.1 5.6 5.3 4.5 3.8 4.1 4.0 3.4 3.6 2.4 1.9 0.5 0.1 -0.8 -1.3 -1.1 -1.1 -0.7 -0.3 -0.2 0.4 0.8 1.2 1.7 2.4 2.8 3.4 4.0 4.0 3.5 2.9 3.1 3.6 3.3
6.5 6.5 6.5 6.5 6.5 6.5 6.5 6.5 6.5 6.5 6.5 6.3 6.1 5.4 5.8 5.7 5.6 5.2 4.6 3.7 4.2 4.0 3.1 2.7 2.7 2.4 0.4 0.5 -0.9 -1.1 -1.1 -0.5 -0.6 -0.6 -0.1 -0.2 0.4 1.8 2.5 2.5 2.9 3.3 3.7 3.6 3.6 3.1 3.5 3.6 3.5
6.5 6.5 6.5 6.5 6.5 6.5 6.5 6.5 6.5 6.5 6.5 6.5 6.6 5.9 5.9 5.7 5.8 5.3 5.0 3.9 3.6 3.8 3.2 2.8 2.7 2.5 0.5 -1.0 -0.2 -0.1 -0.8 -0.2 0.0 -0.3 0.2 0.6 1.5 2.7 2.4 2.5 3.2 3.6 3.4 3.4 3.4 3.3 3.5 3.5 3.3
6.5 6.5 6.5 6.5 6.5 6.5 6.5 6.5 6.5 6.5 6.5 6.5 6.5 6.1 5.9 5.6 5.0 5.1 4.7 4.4 2.8 3.4 3.5 2.6 2.4 1.9 -0.4 0.1 -1.2 -1.3 -0.7 -0.4 -0.6 -0.5 -0.1 0.5 0.8 1.0 1.7 2.4 3.1 3.2 3.3 3.6 3.5 3.5 3.7 3.6 3.4
6.5 6.5 6.5 6.5 6.5 6.5 6.5 6.5 6.5 6.5 6.5 6.2 6.0 5.8 5.3 4.5 4.1 4.5 4.2 4.7 4.0 3.4 3.5 3.1 2.2 1.5 0.1 0.8 -0.2 -1.0 -0.9 -0.6 0.1 -0.3 -0.1 0.3 0.5 0.9 1.9 2.4 2.7 3.1 3.4 3.6 3.4 3.4 3.9 3.7 3.4
Wind_Speed
13 14 4 2 1 4 0 2 2 3 4 0 5 7 9 10 2 4 2 7 8 7 15 19 22 21 20 19 20 20 21 20 19 19 19 18 18 16 15 13 12 11 10 9 8 6 6 7 7
13 12 2 2 4 3 3 2 4 3 6 10 10 7 10 6 5 10 6 9 10 10 11 16 20 21 20 19 19 19 19 18 18 18 17 17 16 15 14 12 11 10 9 7 6 5 4 4 4
13 4 3 3 3 5 4 2 5 8 10 4 6 9 4 3 9 10 10 12 11 6 10 16 20 19 19 19 18 17 17 17 17 17 16 15 15 13 11 10 10 8 7 6 4 3 2 1 2
5 1 2 4 4 3 6 6 5 8 3 9 13 9 5 8 8 7 14 11 10 7 11 17 19 19 19 19 18 17 16 16 15 15 14 13 13 11 9 9 7 6 5 4 3 1 1 1 0
1 2 4 4 2 3 5 11 12 7 4 12 7 7 5 3 14 15 12 11 10 6 12 15 18 18 18 18 16 15 15 14 15 14 13 13 11 10 9 8 7 5 4 2 1 2 2 3 2
2 3 6 3 3 4 5 9 12 8 10 11 12 8 3 12 15 12 11 11 10 8 9 13 16 17 16 17 15 14 14 14 13 13 12 11 10 9 8 7 5 4 2 2 3 5 4 5 5
4 5 4 5 6 8 8 9 7 13 11 9 11 6 6 11 12 11 11 10 8 9 8 10 12 15 17 16 16 15 14 13 12 12 11 11 10 8 7 6 5 4 4 5 6 8 7 7 8
4 5 4 2 9 5 9 5 7 10 5 14 11 5 10 10 15 11 11 9 7 5 6 7 11 13 14 14 17 16 14 14 12 12 11 10 9 7 6 5 5 5 7 7 7 8 8 9 9
3 5 3 6 7 6 10 5 7 7 12 5 5 7 14 18 16 13 10 7 7 7 6 8 8 10 12 12 14 15 15 13 12 12 11 10 7 7 7 7 6 7 9 7 5 7 8 10 9
5 3 6 8 6 12 10 15 10 8 12 8 15 14 17 19 16 15 12 11 10 10 7 6 6 8 10 11 10 11 12 13 12 10 10 9 9 9 8 8 8 8 9 11 8 7 8 8 8
4 6 6 7 7 16 16 12 4 17 7 20 22 21 21 17 16 15 14 16 17 13 9 9 7 10 10 8 11 12 12 11 12 11 11 10 9 8 8 7 7 6 6 8 6 4 6 5 6
4 5 7 7 8 8 15 9 7 10 6 17 22 22 20 18 17 14 14 12 10 11 11 9 9 9 13 9 8 9 8 9 9 12 14 11 7 7 8 7 7 5 2 1 3 2 3 4 7
8 6 8 8 10 10 7 4 6 6 14 16 19 21 21 18 17 15 15 13 11 11 11 11 10 9 9 7 7 8 8 9 10 12 14 13 9 5 7 6 4 4 2 1 2 0 2 3 5
7 3 8 7 8 4 11 8 7 10 17 19 20 20 18 18 17 12 10 11 13 12 12 12 12 10 9 6 7 7 8 12 12 13 13 17 12 7 7 5 5 4 5 3 3 2 1 3 4
12 5 7 4 3 6 13 4 8 18 20 20 19 18 18 17 15 16 14 13 14 12 12 13 12 9 8 8 8 8 11 11 9 12 14 14 14 9 7 4 2 4 4 3 2 2 3 2 3
9 5 6 4 6 8 6 5 12 16 21 20 18 17 16 16 18 16 16 14 13 11 11 13 11 10 9 7 6 6 9 9 8 8 12 14 13 13 5 3 3 5 1 1 1 1 2 2 2
5 13 5 6 8 4 2 5 15 16 17 17 17 19 16 16 15 14 15 15 14 14 13 12 12 11 11 6 6 7 9 7 7 6 6 7 10 9 8 5 3 0 2 1 0 1 0 2 3
11 8 8 11 16 6 6 6 18 18 17 17 15 13 13 14 17 17 15 13 12 13 12 13 11 8 7 4 4 2 2 3 3 5 6 3 3 5 7 5 3 4 2 1 1 1 1 1 1
10 8 17 10 8 5 8 8 20 20 17 16 15 14 14 14 13 13 14 13 11 10 10 10 8 7 6 3 2 1 3 2 2 4 6 7 7 6 6 4 3 3 3 2 2 1 2 2 2
8 9 13 2 9 5 7 8 18 20 21 20 20 17 18 14 10 12 13 11 12 13 11 9 11 9 8 3 3 3 2 2 2 1 3 6 7 9 8 5 3 4 4 3 1 1 1 0 2
5 8 10 8 10 5 9 4 12 13 10 15 16 18 16 17 17 15 15 15 12 11 11 11 12 11 7 7 3 2 2 2 1 1 1 3 8 9 9 7 5 4 3 3 2 1 2 1 1
5 8 8 10 17 8 8 5 8 13 15 14 16 17 17 16 16 15 17 15 14 13 11 11 10 9 7 8 6 5 4 3 3 2 2 3 5 7 9 8 8 5 3 4 2 2 1 2 1
9 9 9 9 15 5 5 4 6 13 10 21 20 19 19 18 19 18 19 19 18 15 12 10 9 8 8 9 8 6 4 3 2 2 4 2 0 3 7 9 8 4 3 3 4 2 2 2 3
2 4 8 6 5 5 12 8 5 10 27 26 17 18 21 20 20 19 19 15 14 12 12 11 12 11 10 10 8 9 9 7 5 3 4 2 1 0 4 8 6 5 3 4 3 2 2 3 3
5 7 2 3 2 6 9 7 11 18 24 28 26 21 21 21 21 20 19 17 15 17 17 15 15 14 12 12 9 9 9 9 8 6 5 5 3 2 5 4 4 3 4 4 3 3 2 3 2
7 10 6 7 5 6 7 7 12 18 20 24 20 20 16 19 19 21 22 20 20 18 16 16 16 15 13 11 10 8 8 6 5 6 4 4 4 5 5 5 5 5 5 3 3 2 3 3 4
4 4 9 5 1 3 5 6 8 7 11 19 23 15 18 19 21 22 21 20 19 19 19 19 17 15 12 12 9 8 7 7 7 7 5 5 5 4 6 6 6 5 4 4 3 2 3 3 3
13 7 1 2 6 5 4 3 5 6 6 12 15 17 20 20 19 19 19 19 19 20 19 18 17 16 13 11 11 9 9 8 7 6 7 7 6 5 6 6 6 6 5 4 3 3 4 4 4
3 3 3 5 4 7 4 7 9 8 8 14 18 22 21 19 19 18 18 19 20 18 18 17 16 16 14 14 12 9 6 7 7 7 7 7 6 7 7 7 6 6 6 5 4 5 5 6 6
7 10 9 7 6 1 4 7 3 9 9 14 16 16 14 16 17 19 19 20 17 18 17 17 16 16 16 14 12 11 9 8 8 8 8 7 8 7 7 7 6 6 6 5 6 6 5 6 6
Wind_Direction
146 140 121 67 71 75 331 203 183 111 96 135 78 96 94 31 64 149 97 134 133 135 142 141 145 143 137 128 126 128 129 126 119 118 120 118 118 114 116 119 113 108 105 105 109 109 95 83 86
158 147 112 263 83 86 288 136 167 120 93 119 92 76 51 70 57 113 110 154 138 138 137 140 141 137 135 133 127 126 127 126 123 123 124 125 124 126 125 128 119 119 117 118 119 118 99 91 86
160 165 121 144 112 161 176 235 124 104 132 103 106 74 72 71 109 136 134 142 131 115 124 139 135 133 138 134 128 129 135 139 131 131 130 135 129 126 129 124 120 117 122 125 128 118 98 78 82
156 164 260 90 161 346 149 170 135 114 140 86 109 74 81 126 144 133 139 137 127 124 134 138 140 140 141 138 139 140 143 138 135 137 138 136 129 131 132 124 123 131 134 135 113 83 72 309 357
311 97 55 61 15 52 105 143 138 132 113 102 97 108 83 52 110 129 137 134 131 132 138 147 146 149 145 145 145 146 141 137 139 139 141 136 134 139 139 139 147 153 152 155 177 278 307 305 309
18 108 64 93 81 84 106 140 143 116 107 114 103 103 78 127 129 141 139 137 138 135 134 147 149 152 151 156 154 151 149 145 144 146 143 139 147 152 152 159 173 180 192 233 266 277 278 280 277
174 81 143 92 134 144 157 150 151 136 133 121 139 99 122 141 147 144 139 133 135 139 138 141 150 156 163 166 167 164 161 153 159 154 155 160 165 169 175 190 202 222 240 262 277 280 283 274 273
151 92 82 67 149 160 148 131 151 131 101 120 144 154 159 159 149 135 135 133 137 140 146 151 162 163 165 169 175 177 173 171 174 170 173 179 183 193 207 221 247 250 254 263 276 286 294 299 288
92 79 104 179 161 162 171 138 173 93 133 145 194 134 148 147 136 130 129 138 145 156 165 164 168 171 173 176 183 182 181 182 187 186 187 193 201 220 232 244 254 274 279 305 303 301 301 300 314
75 49 179 179 171 166 168 165 148 135 158 113 111 119 144 147 147 148 156 162 168 172 180 176 170 171 171 182 196 188 193 196 201 200 203 205 218 233 247 276 280 276 280 282 297 293 293 302 319
181 186 162 183 166 162 151 161 103 148 169 156 149 151 156 161 161 162 170 176 178 176 177 183 179 181 180 194 194 194 207 211 213 215 214 219 229 244 249 257 262 262 282 286 296 265 276 309 326
137 253 166 145 143 130 159 141 130 170 184 161 150 157 161 165 171 175 176 174 174 179 185 181 185 184 195 195 190 197 200 213 221 221 222 217 228 244 235 229 236 245 247 5 325 358 329 329 330
177 197 159 136 113 130 115 130 139 185 136 146 152 158 170 175 179 186 182 177 171 178 189 184 184 193 196 190 191 199 210 216 226 229 231 226 225 230 238 248 223 230 236 234 146 195 266 273 308
165 175 108 113 118 134 120 125 117 151 136 148 160 170 175 180 186 180 183 181 181 181 190 182 191 195 179 191 193 204 211 227 224 230 237 233 226 220 206 220 220 221 215 232 231 215 298 331 328
118 87 68 93 180 126 120 66 163 154 148 157 171 177 181 188 185 189 187 187 184 188 185 185 194 186 183 202 205 203 215 233 230 234 240 241 235 237 222 214 199 240 262 304 301 342 345 338 323
98 38 129 217 188 182 87 195 165 165 158 168 176 184 190 196 189 194 186 190 191 183 180 186 188 192 193 196 200 198 197 206 215 236 239 239 239 228 206 206 220 224 278 3 321 339 332 315 318
67 177 198 177 214 148 130 141 178 175 174 178 177 185 193 196 199 197 192 186 190 185 177 180 183 190 194 192 205 204 204 205 216 236 233 229 238 235 182 212 228 216 32 8 202 329 230 315 330
178 168 211 165 197 176 217 174 166 177 177 187 195 194 196 184 198 192 189 182 181 188 180 180 185 186 175 178 203 222 231 246 224 213 235 226 182 171 170 182 199 130 96 63 33 281 253 252 306
143 182 199 209 188 138 199 160 175 181 187 191 196 201 205 207 195 188 190 178 176 182 173 180 169 185 161 182 168 198 224 225 229 220 230 206 201 186 162 135 142 120 111 92 52 86 55 43 5
156 169 203 300 156 102 182 196 186 185 196 193 194 199 205 207 183 182 188 184 174 181 187 178 192 186 192 173 163 160 171 215 228 162 228 209 186 167 157 155 141 139 109 89 88 86 100 354 8
168 173 188 185 161 49 116 348 207 218 215 212 206 208 207 200 189 185 181 183 188 182 184 182 192 186 187 181 126 89 63 51 6 354 218 201 183 169 154 145 143 131 130 151 166 172 162 139 307
195 206 210 153 161 189 168 217 224 211 222 221 215 211 208 203 199 188 184 186 188 196 187 183 188 184 191 176 166 160 174 187 220 191 179 143 160 138 145 151 152 158 159 146 160 162 161 125 141
227 155 198 174 184 113 209 103 255 167 226 229 215 211 206 199 195 195 190 191 191 187 185 183 179 183 182 182 178 169 168 180 175 129 142 139 26 176 163 160 152 151 155 163 164 177 179 180 162
191 104 42 41 133 202 199 182 237 182 213 225 217 215 203 198 199 196 197 191 190 184 182 182 184 193 184 182 184 177 173 169 154 170 169 187 204 203 169 155 161 163 175 178 190 186 194 197 193
99 83 326 341 351 214 196 194 232 207 216 215 207 207 200 196 197 195 190 188 189 191 192 187 188 197 192 184 181 183 172 163 170 177 180 170 165 167 171 163 173 175 196 191 191 198 213 221 196
180 162 162 192 199 228 111 206 237 224 223 222 210 204 194 196 196 196 193 190 196 196 197 194 192 197 190 183 181 171 162 167 174 182 181 179 179 180 172 179 186 206 201 201 217 221 222 221 228
200 156 196 142 353 121 206 266 324 265 218 212 208 187 199 196 195 198 196 194 196 198 199 194 196 197 186 183 167 171 167 166 180 189 177 176 186 184 181 184 193 214 224 214 205 233 244 235 219
197 167 104 354 172 232 258 245 228 288 234 208 194 197 201 200 194 199 196 193 200 202 203 198 194 196 182 171 175 175 178 176 182 172 179 180 181 187 174 187 200 208 225 227 216 248 258 245 255
150 175 83 131 145 175 226 256 212 226 211 192 197 200 199 193 195 195 197 196 201 200 198 198 192 186 178 182 170 163 179 168 182 175 180 189 181 183 188 197 206 214 228 238 233 246 257 236 238
183 205 176 207 247 167 174 262 247 240 205 191 195 196 193 195 191 196 197 197 196 200 198 196 192 190 185 180 170 170 176 175 185 189 195 190 197 189 194 197 204 216 229 239 237 252 249 241 245